Regional Weather Roundup
Issued by NWS

Home | Current Version | Previous Version | Graphics & Text | Print | Product List | Glossary Off
Versions: 1 2 3 4 5 6 7 8 9 10 11 12 13 14 15 16 17 18 19 20 21 22 23 24 25 26 27 28 29 30 31 32 33 34 35 36 37 38 39 40 41 42 43 44 45 46 47 48 49 50

000
ASUS43 KMKX 202211
RWRWI

WISCONSIN REGIONAL WEATHER ROUNDUP
NATIONAL WEATHER SERVICE MILWAUKEE/SULLIVAN WI
400 PM CST MON NOV 20 2017

NOTE: "FAIR" INDICATES FEW OR NO CLOUDS BELOW 12,000 FEET WITH NO
SIGNIFICANT WEATHER AND/OR OBSTRUCTIONS TO VISIBILITY.

WIZ001-002-006>008-014>016-023>028-202300-
NORTHWEST WISCONSIN

CITY           SKY/WX    TMP DP  RH WIND       PRES   REMARKS
SUPERIOR ARPT  CLOUDY    34  29  83 CALM      29.36F
ASHLAND        CLOUDY    43  28  55 S12G21    29.37F
HAYWARD        CLOUDY    41  28  60 S14       29.41S
SIREN          CLOUDY    42  28  58 SW12G17   29.40F
CUMBERLAND     CLOUDY    39  28  65 S10       29.44S WCI  32
RICE LAKE      CLOUDY    42  30  61 S8        29.47R
CHETEK         CLOUDY    44  31  60 S7        29.45F
LADYSMITH      CLOUDY    42  30  63 S6        29.47R
EAU CLAIRE     CLOUDY    47  30  51 SW10      29.47S
MENOMONIE      CLOUDY    47  31  53 S10       29.48R
NEW RICHMOND   CLOUDY    43  29  58 S9        29.45S
OSCEOLA        CLOUDY    43  31  61 S8        29.47S
$$

WIZ003>005-009-010-017-018-202300-
NORTH CENTRAL WISCONSIN

CITY           SKY/WX    TMP DP  RH WIND       PRES   REMARKS
MANITOWISH WTR CLOUDY    38  30  71 S10       29.42R WCI  32
ARBOR VITAE    CLOUDY    42  31  67 S10       29.45R
WOODRUFF       CLOUDY    42  31  67 S10       29.45R
RHINELANDER    CLOUDY    41  28  60 S9        29.45F
EAGLE RIVER    CLOUDY    40  27  58 S8        29.44S WCI  35
LAND O LAKES   CLOUDY    40  31  71 S5        29.44S
PHILLIPS       CLOUDY    41  29  63 S10       29.44R
TOMAHAWK       CLOUDY    39  28  65 CALM      29.47R
MEDFORD        CLOUDY    39  30  69 S8        29.46F WCI  34
MERRILL        CLOUDY    43  29  58 S5        29.48F
$$

WIZ029-030-035-036-043>047-202300-
CENTRAL WISCONSIN

CITY           SKY/WX    TMP DP  RH WIND       PRES   REMARKS
WAUSAU         PTCLDY    44  29  55 S10       29.48F
MOSINEE        CLOUDY    43  30  61 S9        29.51F
MARSHFIELD     PTCLDY    46  28  49 SW9       29.49R
STEVENS POINT  CLOUDY    44  29  54 S9        29.53S
WAUPACA        CLOUDY    47  31  53 S8        29.54F
WAUTOMA        CLOUDY    47  30  51 S7        29.55F
WISC RAPIDS    CLOUDY    47  30  51 SW13      29.54S
CAMP DOUGLAS   CLOUDY    50  30  46 SW7       29.55R
$$

WIZ011>013-019>022-031-037>040-048>050-202300-
NORTHEAST WISCONSIN

CITY           SKY/WX    TMP DP  RH WIND       PRES   REMARKS
ANTIGO         CLOUDY    37  29  71 S10       29.50F WCI  30
SHAWANO        CLOUDY    45  31  59 CALM      29.54S
OCONTO         PTCLDY    41  29  63 CALM      29.56R
STURGEON BAY   CLOUDY    41  34  76 S17G25    29.55F
GREEN BAY      CLOUDY    45  33  63 S13       29.56F
MANITOWOC      CLOUDY    43  34  70 S15       29.59F
APPLETON       PTCLDY    45  28  53 S29       29.55S
CLINTONVILLE   CLOUDY    45  30  57 S8        29.54F
OSHKOSH        CLOUDY    45  32  60 S15       29.56F
$$

WIZ032>034-041-042-053>061-202300-
SOUTHWEST WISCONSIN

CITY           SKY/WX    TMP DP  RH WIND       PRES   REMARKS
LA CROSSE      MOCLDY    52  32  46 S9        29.53R
SPARTA         PTCLDY    50  32  49 SW7       29.54R
VIROQUA        MOCLDY    48  33  56 S10       29.54S
BOSCOBEL       CLOUDY    54  31  41 S5        29.58S
PRAIRIE DU CHI CLOUDY    55  28  35 S8        29.57S
PLATTEVILLE    CLOUDY    53  34  48 S18       29.60F
$$

WIZ056-057-062-063-064-067-068-202300-
SOUTH CENTRAL WISCONSIN

CITY           SKY/WX    TMP DP  RH WIND       PRES   REMARKS
REEDSBURG      CLOUDY    48  32  53 S12       29.56F
BARABOO/DELLS  CLOUDY    49  30  47 SW15      29.56F
LONE ROCK      CLOUDY    52  33  48 SW9       29.58F
MINERAL POINT  CLOUDY    52  32  46 S13G18    29.59S
MADISON        CLOUDY    50  32  50 S12G24    29.59F
MIDDLETON      CLOUDY    51  32  47 S15G22    29.58F
WATERTOWN      CLOUDY    48  32  54 S10       29.61F
MONROE         CLEAR     50  32  50 S24       29.61F
JANESVILLE     MOCLDY    54  32  43 S17G25    29.65F
$$

WIZ051-052-058>065-066-070>072-202300-
SOUTHEAST WISCONSIN

CITY           SKY/WX    TMP DP  RH WIND       PRES   REMARKS
MILWAUKEE      CLOUDY    51  33  50 SW18      29.66F
WAUKESHA       CLEAR     46  32  57 S12G28    29.65F
MILWAUKEE/TIMM CLEAR     48  28  46 SW15G22   29.65F
RACINE         CLOUDY    50  32  50 SW15G28   29.68F
BURLINGTON     CLOUDY    51  38  61 S16G24    29.67F
KENOSHA        CLEAR     51  31  46 SW15G25   29.68F
FOND DU LAC    CLOUDY    47  30  51 S15G25    29.57F
SHEBOYGAN      CLOUDY    45  33  63 S10       29.60F
WEST BEND      CLOUDY    46  30  53 S12G20    29.60F
JUNEAU         CLOUDY    46  32  58 S14G20    29.60F
$$

LSZ147-162-202300-
LAKE SUPERIOR

STATION/POSITION TIME  TEMP    WIND        PRES    WAVE
                       AIR SEA DIR/SP/G            HT/PER
                 (UTC) (F)     (DEG/KT/KT) (MB)    (FT/S)
DEVILS ISLAND    2200   37     110/  5/  7  994.7F
SAXON HARBOR     2130   44     190/  3/  6  994.9S
$$

LMZ867-665-643>646-202300-
LAKE MICHIGAN

STATION/POSITION TIME  TEMP    WIND        PRES    WAVE
                       AIR SEA DIR/SP/G            HT/PER
                 (UTC) (F)     (DEG/KT/KT) (MB)    (FT/S)
N MID LAKE BUOY  2150   45 48  190/ 29/ 35 1001.6F   7/ 6
NORTHPORT PIER   2140   42     160/ 10/ 18 1001.0F
KEWAUNEE LAKESHO 2142   42     180/ 19/ 22 1001.1F
SHEBOYGAN LAKESH 2200   45     190/ 21/ 23 1002.4F
PORT WASHINGTON  2130   49     200/  7/ 13 1004.4F
ATWATER BUOY     1939   47 42  200/ 10/ 12 1006.5
MILWAUKEE LAKESH 2150   51     210/ 20/ 24   N/A
S MID LAKE BUOY  2150   49 49  200/ 23/ 27 1006.3F   6/ 6
KENOSHA   LAKESH 2200   52     200/ 12/ 24 1005.4
$$

TC  - TEMPERATURE IN CELSIUS
VSB - VISIBILITY IN STATUTE MILES
WCI - WIND CHILL INDEX
HX  - HEAT INDEX





USA.gov is the U.S. government's official web portal to all federal, state and local government web resources and services.